Weather History for Wildwood, NJ

Change the Weather History Date:

Tuesday, December 4, 2012

  Actual Average Record
Temperature  
Mean Temperature 56 °F -  
Max Temperature 62 °F 48 °F 71 °F (1998)
Min Temperature 50 °F 35 °F 21 °F (2002)
Degree Days  
Heating Degree Days 9    
Growing Degree Days 6 (Base 50)    
Moisture  
Dew Point 49 °F    
Average Humidity 80    
Maximum Humidity 94    
Minimum Humidity 68    
Precipitation  
Precipitation 0.00 in - - ()
Sea Level Pressure  
Sea Level Pressure 30.20 in    
Wind  
Wind Speed 7 mph (South)    
Max Wind Speed 16 mph    
Max Gust Speed 22 mph    
Visibility 10 miles    
Events      
Averages and records for this station are not official NWS values.
T = Trace of Precipitation, MM = Missing Value Source: NWS Daily Summary

Daily Weather History Graph

Daily Weather History Graph

Search for Another Location

Airport:

Trip Planner

Search our weather history database for the weather conditions in past years. The results will help you decide how hot, cold, wet, or windy it might be!

Date:

Astronomy

Dec. 04, 2012 Rise Set
Actual Time 7:02 AM EST 4:37 PM EST
Civil Twilight 6:33 AM EST 5:06 PM EST
Nautical Twilight 5:59 AM EST 5:40 PM EST
Astronomical Twilight 5:27 AM EST 6:12 PM EST
Moon 10:20 PM EST (12/4) 10:57 AM EST (12/4)
Length of Visible Light 10h 33m
Length of Day
9h 34m
Waning Gibbous, 69% of the Moon is Illuminated
Dec 4
Waning Gibbous
Dec 6
Last Quarter
Dec 13
New
Dec 20
First Quarter
Dec 28
Full

Hourly Weather History & Observations

Time (EST) Temp. Dew Point Humidity Pressure Visibility Wind Dir Wind Speed Gust Speed Precip Events Conditions
12:15 AM 51.8 °F 46.4 °F 82% 30.27 in 10.0 mi SSE 3.5 mph - N/A   Clear
12:35 AM 51.8 °F 46.4 °F 82% 30.27 in 10.0 mi SSE 4.6 mph - N/A   Clear
12:55 AM 51.8 °F 46.4 °F 82% 30.26 in 10.0 mi Calm Calm - N/A   Clear
1:15 AM 51.8 °F 46.4 °F 82% 30.26 in 10.0 mi South 4.6 mph - N/A   Clear
1:35 AM 51.8 °F 46.4 °F 82% 30.26 in 10.0 mi South 5.8 mph - N/A   Clear
1:55 AM 50.0 °F 46.4 °F 87% 30.26 in 9.0 mi SSE 5.8 mph - N/A   Clear
2:15 AM 50.0 °F 46.4 °F 87% 30.26 in 10.0 mi South 6.9 mph - N/A   Clear
2:35 AM 50.0 °F 46.4 °F 87% 30.26 in 10.0 mi South 5.8 mph - N/A   Clear
2:55 AM 51.8 °F 46.4 °F 82% 30.26 in 10.0 mi South 4.6 mph - N/A   Clear
3:15 AM 50.0 °F 46.4 °F 87% 30.26 in 10.0 mi SSE 3.5 mph - N/A   Clear
3:55 AM 51.8 °F 46.4 °F 82% 30.26 in 10.0 mi SSE 4.6 mph - N/A   Scattered Clouds
4:15 AM 51.8 °F 46.4 °F 82% 30.26 in 10.0 mi SE 3.5 mph - N/A   Mostly Cloudy
4:35 AM 51.8 °F 46.4 °F 82% 30.26 in 10.0 mi SSE 4.6 mph - N/A   Overcast
4:55 AM 51.8 °F 46.4 °F 82% 30.26 in 8.0 mi South 4.6 mph - N/A   Overcast
5:15 AM 51.8 °F 48.2 °F 88% 30.26 in 8.0 mi SSE 4.6 mph - N/A   Overcast
5:35 AM 51.8 °F 48.2 °F 88% 30.26 in 7.0 mi SSE 5.8 mph - N/A   Overcast
5:55 AM 51.8 °F 48.2 °F 88% 30.26 in 7.0 mi SSE 6.9 mph - N/A   Overcast
6:15 AM 51.8 °F 48.2 °F 88% 30.26 in 7.0 mi SSE 5.8 mph - N/A   Overcast
6:35 AM 51.8 °F 48.2 °F 88% 30.26 in 7.0 mi SSE 6.9 mph - N/A   Overcast
6:55 AM 51.8 °F 48.2 °F 88% 30.27 in 7.0 mi SSE 6.9 mph - N/A   Overcast
7:15 AM 51.8 °F 48.2 °F 88% 30.27 in 5.0 mi South 5.8 mph - N/A   Overcast
7:35 AM 51.8 °F 48.2 °F 88% 30.27 in 5.0 mi South 5.8 mph - N/A   Overcast
7:55 AM 53.6 °F 50.0 °F 88% 30.27 in 6.0 mi SSE 5.8 mph - N/A   Overcast
8:15 AM 53.6 °F 50.0 °F 88% 30.27 in 7.0 mi SSE 6.9 mph - N/A   Overcast
8:35 AM 53.6 °F 51.8 °F 94% 30.27 in 9.0 mi South 8.1 mph - N/A   Overcast
8:55 AM 55.4 °F 51.8 °F 88% 30.27 in 10.0 mi South 8.1 mph - N/A   Overcast
9:15 AM 55.4 °F 51.8 °F 88% 30.28 in 10.0 mi South 10.4 mph - N/A   Overcast
9:35 AM 57.2 °F 51.8 °F 82% 30.28 in 10.0 mi South 12.7 mph - N/A   Overcast
9:55 AM 57.2 °F 51.8 °F 82% 30.28 in 10.0 mi SSE 11.5 mph - N/A   Overcast
10:15 AM 57.2 °F 51.8 °F 82% 30.27 in 10.0 mi South 11.5 mph - N/A   Overcast
10:35 AM 57.2 °F 51.8 °F 82% 30.27 in 10.0 mi South 11.5 mph - N/A   Overcast
10:55 AM 59.0 °F 51.8 °F 77% 30.26 in 10.0 mi South 12.7 mph - N/A   Overcast
11:15 AM 60.8 °F 51.8 °F 72% 30.25 in 10.0 mi South 13.8 mph 19.6 mph N/A   Overcast
11:35 AM 60.8 °F 53.6 °F 77% 30.24 in 10.0 mi South 15.0 mph 20.7 mph N/A   Overcast
11:55 AM 60.8 °F 53.6 °F 77% 30.23 in 10.0 mi South 16.1 mph 21.9 mph N/A   Overcast
12:15 PM 60.8 °F 51.8 °F 72% 30.22 in 10.0 mi South 16.1 mph 20.7 mph N/A   Overcast
12:35 PM 60.8 °F 53.6 °F 77% 30.21 in 10.0 mi South 16.1 mph 20.7 mph N/A   Mostly Cloudy
1:15 PM 62.6 °F 53.6 °F 72% 30.19 in 10.0 mi South 15.0 mph 18.4 mph N/A   Partly Cloudy
1:35 PM 62.6 °F 51.8 °F 68% 30.17 in 10.0 mi South 10.4 mph - N/A   Partly Cloudy
1:55 PM 62.6 °F 51.8 °F 68% 30.17 in 10.0 mi South 11.5 mph - N/A   Clear
2:15 PM 62.6 °F 51.8 °F 68% 30.16 in 10.0 mi South 10.4 mph - N/A   Clear
2:35 PM 62.6 °F 51.8 °F 68% 30.16 in 10.0 mi South 10.4 mph - N/A   Clear
2:55 PM 62.6 °F 51.8 °F 68% 30.16 in 10.0 mi South 9.2 mph - N/A   Clear
3:15 PM 60.8 °F 51.8 °F 72% 30.15 in 10.0 mi SSE 8.1 mph - N/A   Partly Cloudy
3:35 PM 60.8 °F 51.8 °F 72% 30.15 in 10.0 mi South 6.9 mph - N/A   Partly Cloudy
3:55 PM 57.2 °F 50.0 °F 77% 30.15 in 10.0 mi South 8.1 mph - N/A   Clear
4:15 PM 57.2 °F 50.0 °F 77% 30.15 in 10.0 mi South 8.1 mph - N/A   Clear
4:35 PM 55.4 °F 48.2 °F 77% 30.15 in 10.0 mi South 6.9 mph - N/A   Clear
4:55 PM 55.4 °F 48.2 °F 77% 30.15 in 10.0 mi SSE 6.9 mph - N/A   Clear
5:15 PM 53.6 °F 48.2 °F 82% 30.15 in 10.0 mi South 8.1 mph - N/A   Clear
5:35 PM 55.4 °F 50.0 °F 82% 30.14 in 10.0 mi South 8.1 mph - N/A   Clear
5:55 PM 55.4 °F 50.0 °F 82% 30.14 in 10.0 mi South 9.2 mph - N/A   Clear
6:15 PM 55.4 °F 48.2 °F 77% 30.14 in 10.0 mi South 10.4 mph - N/A   Clear
6:35 PM 55.4 °F 50.0 °F 82% 30.13 in 10.0 mi South 10.4 mph - N/A   Clear
6:55 PM 55.4 °F 50.0 °F 82% 30.13 in 10.0 mi South 11.5 mph - N/A   Clear
7:15 PM 55.4 °F 50.0 °F 82% 30.13 in 10.0 mi South 10.4 mph - N/A   Clear
7:35 PM 55.4 °F 50.0 °F 82% 30.12 in 10.0 mi South 10.4 mph - N/A   Clear
7:55 PM 55.4 °F 50.0 °F 82% 30.12 in 10.0 mi South 11.5 mph - N/A   Clear
8:15 PM 55.4 °F 48.2 °F 77% 30.11 in 10.0 mi South 10.4 mph - N/A   Clear
8:35 PM 55.4 °F 48.2 °F 77% 30.10 in 10.0 mi South 10.4 mph - N/A   Clear
8:55 PM 55.4 °F 48.2 °F 77% 30.10 in 10.0 mi South 9.2 mph - N/A   Clear
9:15 PM 55.4 °F 48.2 °F 77% 30.09 in 10.0 mi South 9.2 mph - N/A   Clear
9:35 PM 53.6 °F 48.2 °F 82% 30.09 in 10.0 mi South 8.1 mph - N/A   Clear
9:55 PM 53.6 °F 48.2 °F 82% 30.09 in 10.0 mi South 9.2 mph - N/A   Clear
10:15 PM 55.4 °F 48.2 °F 77% 30.08 in 10.0 mi South 10.4 mph - N/A   Clear
10:35 PM 55.4 °F 48.2 °F 77% 30.08 in 10.0 mi South 9.2 mph - N/A   Clear
10:55 PM 55.4 °F 48.2 °F 77% 30.07 in 10.0 mi SSW 10.4 mph - N/A   Clear
11:15 PM 55.4 °F 48.2 °F 77% 30.07 in 10.0 mi South 11.5 mph - N/A   Clear
11:35 PM 55.4 °F 50.0 °F 82% 30.06 in 10.0 mi SSW 11.5 mph - N/A   Clear
11:55 PM 57.2 °F 50.0 °F 77% 30.05 in 10.0 mi South 11.5 mph - N/A   Clear